User: anonymous   Login
Location: Unspecified
(0.0000°N, 0.0000°E)
Time: 02:41:35
(UTC+00:00)
Language:

N. Korean satellite - Orbit

View from above orbital plane
View from above orbital plane
View from above satellite
View from above satellite

Ground track
Ground track

The orbit data is extracted from the following two-line orbital elements,

1 39026U 12072A   17087.77692501 +.00003880 +00000-0 +15392-3 0  9994
2 39026 097.2286 108.3659 0042785 101.3899 259.2150 15.25092795237679
Epoch (UTC): 28 March 2017 18:38:46
Eccentricity: 0.0042785
inclination: 97.2286°
perigee height: 461 km
apogee height: 520 km
right ascension of ascending node: 108.3659°
argument of perigee: 101.3899°
revolutions per day: 15.25092795
mean anomaly at epoch: 259.2150°
orbit number at epoch: 23767

The dashed part of the orbit path shows where the satellite is in the earth's shadow,  

DLR